Location: Home
(42.5358°N, 72.7383°W)
Time: 12:32:11
(UTC-05:00)

Explorer 7 - Pass Details

Date: 30 November 2021
Orbit: 483 x 674 km, 50.3° (Epoch: 21 January)

Event Time Altitude Azimuth Distance (km) Brightness Sun altitude
Rises 06:24:09 0° 223° (SW) 2,807 10.2 -6.8°
Reaches altitude 10° 06:26:31 10° 218° (SW) 1,875 9.4 -6.4°
Maximum altitude 06:30:39 50° 143° (SE) 700 7.8 -5.7°
Drops below altitude 10° 06:34:33 10° 67° (ENE) 1,772 10.1 -5.0°
Sets 06:36:45 0° 62° (ENE) 2,635 10.9 -4.7°
